EW7961 Weather Reports


Display with metric or nautical units.
time (UTC)temp
F
wind
direction
speed
MPH
gust
MPH
rain 1hr
in
rain 24hr
in
rain mn
in
humidity
%
barometer
mb
20260504000017 77 266 3.0 5.0 0.00 0.00 0.00 37 1009.2
20260503235021 77 261 3.0 4.0 0.00 0.00 0.00 37 1009.3
20260503234020 78 264 3.0 5.0 0.00 0.00 0.00 36 1009.4
20260503233017 78 265 3.0 6.0 0.00 0.00 0.00 35 1009.4
20260503232017 79 264 3.0 5.0 0.00 0.00 0.00 34 1009.4
20260503231018 81 264 3.0 6.0 0.00 0.00 0.00 33 1009.4
20260503225017 82 270 3.0 6.0 0.00 0.00 0.00 31 1009.7
20260503224058 82 274 3.0 6.0 0.00 0.00 0.00 31 1009.6
20260503223018 82 275 3.0 4.0 0.00 0.00 0.00 31 1009.7
20260503222018 82 270 2.0 5.0 0.00 0.00 0.00 33 1009.8
20260503221018 82 265 3.0 5.0 0.00 0.00 0.00 32 1009.9
20260503220019 82 264 3.0 7.0 0.00 0.00 0.00 32 1009.9
20260503215058 82 274 3.0 5.0 0.00 0.00 0.00 33 1010.0
20260503214019 81 267 3.0 6.0 0.00 0.00 0.00 33 1010.0
20260503213019 81 269 3.0 9.0 0.00 0.00 0.00 33 1010.0
20260503212019 81 272 3.0 5.0 0.00 0.00 0.00 34 1010.2
20260503211059 80 272 3.0 7.0 0.00 0.00 0.00 34 1010.4
20260503210019 79 272 3.0 8.0 0.00 0.00 0.00 36 1010.5
20260503205019 78 271 3.0 7.0 0.00 0.00 0.00 36 1010.7
20260503204140 77 262 3.0 6.0 0.00 0.00 0.00 35 1010.9
20260503203016 77 276 3.0 8.0 0.00 0.00 0.00 38 1011.2
20260503202016 76 253 2.0 8.0 0.00 0.00 0.00 37 1011.4
20260503201020 76 276 2.0 7.0 0.00 0.00 0.00 37 1011.7
20260503200020 75 248 2.0 6.0 0.00 0.00 0.00 37 1011.9
20260503195017 75 272 3.0 5.0 0.00 0.00 0.00 37 1012.1
20260503194017 74 270 2.0 6.0 0.00 0.00 0.00 37 1012.4
20260503193017 74 283 2.0 5.0 0.00 0.00 0.00 37 1012.8
20260503192021 73 278 3.0 6.0 0.00 0.00 0.00 37 1013.0
20260503191101 73 281 3.0 6.0 0.00 0.00 0.00 38 1013.2
20260503190018 72 255 2.0 5.0 0.00 0.00 0.00 38 1013.4
20260503185018 72 271 2.0 5.0 0.00 0.00 0.00 40 1013.8
20260503184018 72 274 3.0 8.0 0.00 0.00 0.00 40 1014.0
20260503183140 72 171 1.0 4.0 0.00 0.00 0.00 40 1014.2
20260503182018 71 266 2.0 4.0 0.00 0.00 0.00 41 1014.6
20260503181021 70 256 2.0 5.0 0.00 0.00 0.00 41 1014.9
20260503180058 70 273 3.0 6.0 0.00 0.00 0.00 41 1015.2
20260503174018 69 273 2.0 5.0 0.00 0.00 0.00 41 1016.1
20260503173018 68 278 2.0 5.0 0.00 0.00 0.00 41 1016.4
20260503172019 67 278 2.0 7.0 0.00 0.00 0.00 42 1016.6
20260503171059 67 278 2.0 7.0 0.00 0.00 0.00 43 1016.7
20260503131019 53 283 3.0 4.0 0.00 0.00 0.00 65 1019.3
20260503090107 0 319 2.0 2.0 0.00 0.00 0.00
20260503081028 47 30 2.0 3.0 0.00 0.00 0.00 84 1019.3
20260503072017 48 14 2.0 3.0 0.00 0.02 0.00 77 1019.4
20260503071017 49 3 2.0 3.0 0.00 0.02 0.00 76 1019.4
20260503055020 48 35 2.0 3.0 0.00 0.03 0.00 71 1019.8
20260503054018 48 31 2.0 3.0 0.00 0.03 0.00 74 1019.8
20260503053019 48 27 2.0 3.0 0.00 0.03 0.00 74 1019.9
20260503052018 48 15 2.0 3.0 0.00 0.03 0.00 74 1019.9
20260503051019 48 33 2.0 3.0 0.00 0.03 0.00 74 1019.9
20260503050019 49 5 2.0 3.0 0.00 0.03 0.00 74 1019.9
20260503045020 49 35 2.0 3.0 0.00 0.03 0.00 73 1019.8
20260503044019 49 21 2.0 3.0 0.00 0.03 0.00 73 1019.8
20260503043019 49 312 2.0 3.0 0.00 0.03 0.00 71 1019.8
20260503042019 49 1 2.0 3.0 0.00 0.03 0.00 70 1019.7
20260503041016 50 24 2.0 3.0 0.00 0.03 0.00 70 1019.7
20260503040019 50 347 2.0 3.0 0.00 0.03 0.00 68 1019.7
20260503035019 50 28 2.0 3.0 0.00 0.03 0.00 67 1019.8
20260503034019 50 352 2.0 3.0 0.00 0.03 0.00 66 1019.7
20260503033100 51 304 2.0 3.0 0.00 0.03 0.00 65 1019.7
20260503032017 51 12 2.0 3.0 0.00 0.03 0.00 64 1019.7
20260503031017 51 265 2.0 3.0 0.00 0.03 0.00 63 1019.7
20260503030020 51 281 2.0 3.0 0.00 0.03 0.00 62 1019.6
20260503025020 52 323 3.0 3.0 0.00 0.03 0.00 61 1019.7
20260503024017 52 276 3.0 3.0 0.00 0.03 0.00 60 1019.6
20260503023017 53 266 3.0 3.0 0.00 0.03 0.00 59 1019.6
20260503022018 53 257 3.0 4.0 0.00 0.03 0.00 58 1019.5
20260503021018 53 250 3.0 4.0 0.00 0.03 0.00 56 1019.4
20260503020021 54 246 3.0 4.0 0.00 0.03 0.00 55 1019.3
20260503015018 54 243 3.0 4.0 0.00 0.03 0.00 52 1019.2
20260503014018 55 248 3.0 4.0 0.00 0.03 0.00 51 1019.1
20260503013018 56 259 3.0 4.0 0.00 0.03 0.00 51 1019.0
20260503012018 56 254 3.0 4.0 0.00 0.03 0.00 48 1018.9
20260503011018 57 29 3.0 4.0 0.00 0.03 0.00 47 1018.8
20260503010019 58 297 2.0 4.0 0.00 0.03 0.00 45 1018.8
20260503005022 59 242 3.0 4.0 0.00 0.03 0.00 44 1018.8
20260503004018 59 260 3.0 3.0 0.00 0.03 0.00 42 1018.8
20260503003019 61 266 2.0 3.0 0.00 0.03 0.00 41 1018.7
20260503002057 62 263 2.0 3.0 0.00 0.03 0.00 40 1018.6
20260503001016 61 295 3.0 5.0 0.00 0.03 0.00 39 1018.6